Weather History for Little Rock AFB, AR

Change the Weather History Date:

Tuesday, March 5, 2013

  Actual Average Record
Temperature  
Mean Temperature 46 °F -  
Max Temperature 53 °F 60 °F 78 °F (1967)
Min Temperature 38 °F 36 °F 17 °F (1978)
Degree Days  
Heating Degree Days 20    
Moisture  
Dew Point 35 °F    
Average Humidity 65    
Maximum Humidity 97    
Minimum Humidity 27    
Precipitation  
Precipitation 0.06 in - - ()
Sea Level Pressure  
Sea Level Pressure 30.03 in    
Wind  
Wind Speed 10 mph (WNW)    
Max Wind Speed 26 mph    
Max Gust Speed 34 mph    
Visibility 10 miles    
Events Rain    
Averages and records for this station are not official NWS values.
T = Trace of Precipitation, MM = Missing Value Source: NWS Daily Summary

Daily Weather History Graph

Daily Weather History Graph

Search for Another Location

Airport:

Trip Planner

Search our weather history database for the weather conditions in past years. The results will help you decide how hot, cold, wet, or windy it might be!

Date:

Astronomy

Mar. 05, 2013 Rise Set
Actual Time 6:32 AM CST 6:08 PM CST
Civil Twilight 6:07 AM CST 6:33 PM CST
Nautical Twilight 5:37 AM CST 7:02 PM CST
Astronomical Twilight 5:08 AM CST 7:32 PM CST
Moon 1:34 AM CST (3/5) 11:57 AM CST (3/5)
Length of Visible Light 12h 26m
Length of Day
11h 35m
Last Quarter, 40% of the Moon is Illuminated
Mar 5
Last Quarter
Mar 11
New
Mar 19
First Quarter
Mar 27
Full
Apr 2
Last Quarter

Hourly Weather History & Observations

Time (CST) Temp. Windchill Dew Point Humidity Pressure Visibility Wind Dir Wind Speed Gust Speed Precip Events Conditions
12:58 AM 46.8 °F - 45.9 °F 97% 29.75 in 10.0 mi Calm Calm - N/A   Partly Cloudy
1:58 AM 48.0 °F - 46.8 °F 95% 29.77 in 10.0 mi Calm Calm - N/A   Partly Cloudy
2:58 AM 49.1 °F - 48.2 °F 97% 29.78 in 10.0 mi SW 6.9 mph - N/A   Scattered Clouds
3:58 AM 50.5 °F - 48.7 °F 94% 29.81 in 10.0 mi West 12.7 mph - N/A   Scattered Clouds
4:33 AM 51.8 °F - 48.2 °F 88% 29.84 in 10.0 mi West 11.5 mph - N/A   Mostly Cloudy
4:58 AM 52.2 °F - 48.4 °F 87% 29.86 in 10.0 mi WNW 8.1 mph - N/A   Overcast
5:11 AM 51.8 °F - 48.2 °F 88% 29.88 in 10.0 mi West 11.5 mph 19.6 mph N/A   Light Drizzle
5:22 AM 53.6 °F - 48.2 °F 82% 29.88 in 10.0 mi WNW 13.8 mph 24.2 mph N/A   Overcast
5:48 AM 51.8 °F - 44.6 °F 76% 29.90 in 10.0 mi NW 20.7 mph 28.8 mph N/A Rain Light Rain
5:58 AM 49.8 °F - 40.8 °F 71% 29.93 in 10.0 mi NW 20.7 mph 28.8 mph 0.00 in Rain Light Rain
5:59 AM 50.0 °F - 39.2 °F 66% 29.92 in 10.0 mi NW 21.9 mph 28.8 mph N/A   Overcast
6:20 AM 46.4 °F 39.8 °F 39.2 °F 76% 29.94 in 10.0 mi NW 16.1 mph 27.6 mph N/A Rain Light Rain
6:35 AM 44.6 °F 38.8 °F 39.2 °F 81% 29.96 in 10.0 mi WNW 11.5 mph 26.5 mph N/A Rain Light Rain
6:42 AM 44.6 °F 40.2 °F 39.2 °F 81% 29.99 in 10.0 mi WNW 8.1 mph 23.0 mph N/A   Overcast
6:49 AM 44.6 °F 39.2 °F 39.2 °F 81% 29.98 in 10.0 mi WNW 10.4 mph - N/A Rain Light Rain
6:58 AM 44.2 °F 39.7 °F 39.0 °F 82% 29.97 in 6.0 mi NNW 8.1 mph - 0.00 in Rain Rain
7:52 AM 42.8 °F 37.0 °F 41.0 °F 93% 30.02 in 10.0 mi WNW 10.4 mph - N/A   Mostly Cloudy
7:58 AM 43.5 °F 37.5 °F 40.6 °F 90% 30.03 in 10.0 mi WNW 11.5 mph 17.3 mph 0.06 in   Mostly Cloudy
8:08 AM 44.6 °F 39.2 °F 39.2 °F 81% 30.02 in 10.0 mi WNW 10.4 mph 18.4 mph N/A   Mostly Cloudy
8:18 AM 44.6 °F 39.2 °F 39.2 °F 81% 30.03 in 10.0 mi WNW 10.4 mph 18.4 mph N/A   Overcast
8:23 AM 44.6 °F 38.4 °F 37.4 °F 76% 30.04 in 10.0 mi WNW 12.7 mph - N/A   Overcast
8:28 AM 44.6 °F 39.2 °F 37.4 °F 76% 30.05 in 10.0 mi WNW 10.4 mph - N/A   Overcast
8:33 AM 44.6 °F 39.7 °F 37.4 °F 76% 30.05 in 10.0 mi WNW 9.2 mph - N/A   Overcast
8:53 AM 44.6 °F 38.8 °F 39.2 °F 81% 30.05 in 10.0 mi WNW 11.5 mph 16.1 mph N/A   Overcast
8:58 AM 44.4 °F 39.0 °F 38.5 °F 80% 30.06 in 10.0 mi WNW 10.4 mph 16.1 mph N/A   Mostly Cloudy
9:38 AM 46.4 °F 39.8 °F 35.6 °F 66% 30.07 in 10.0 mi WNW 16.1 mph 26.5 mph N/A   Overcast
9:58 AM 46.0 °F 40.6 °F 34.7 °F 65% 30.09 in 10.0 mi NW 11.5 mph 25.3 mph N/A   Overcast
10:58 AM 47.7 °F - 32.4 °F 55% 30.10 in 10.0 mi WNW 20.7 mph 32.2 mph N/A   Mostly Cloudy
11:58 AM 51.1 °F - 30.2 °F 45% 30.09 in 10.0 mi WNW 18.4 mph 31.1 mph N/A   Clear
12:58 PM 52.9 °F - 29.8 °F 41% 30.08 in 10.0 mi West 26.5 mph 33.4 mph N/A   Clear
1:58 PM 52.7 °F - 25.9 °F 35% 30.09 in 10.0 mi West 21.9 mph 34.5 mph N/A   Clear
2:41 PM 53.6 °F - 21.2 °F 28% 30.09 in 10.0 mi West 25.3 mph 33.4 mph N/A   Light Drizzle
2:51 PM 53.6 °F - 21.2 °F 28% 30.10 in 10.0 mi West 20.7 mph 31.1 mph N/A   Clear
2:58 PM 53.8 °F - 21.7 °F 29% 30.11 in 10.0 mi West 23.0 mph 32.2 mph 0.00 in   Clear
3:58 PM 53.8 °F - 19.9 °F 27% 30.12 in 10.0 mi West 15.0 mph 23.0 mph N/A   Clear
4:58 PM 52.5 °F - 19.2 °F 27% 30.14 in 10.0 mi WNW 13.8 mph 20.7 mph N/A   Clear
5:58 PM 49.8 °F - 18.5 °F 29% 30.16 in 10.0 mi WNW 12.7 mph 17.3 mph N/A   Clear
6:58 PM 47.1 °F - 18.0 °F 31% 30.18 in 10.0 mi WNW 9.2 mph 17.3 mph N/A   Clear
7:58 PM 45.3 °F 41.6 °F 19.8 °F 36% 30.20 in 10.0 mi WNW 6.9 mph - N/A   Clear
8:58 PM 44.2 °F 41.0 °F 20.1 °F 38% 30.24 in 10.0 mi West 5.8 mph - N/A   Clear
9:58 PM 43.5 °F 40.1 °F 20.3 °F 40% 30.27 in 10.0 mi WNW 5.8 mph - N/A   Clear
10:58 PM 38.7 °F 35.2 °F 21.6 °F 50% 30.27 in 10.0 mi NW 4.6 mph - N/A   Clear
11:58 PM 38.5 °F - 21.2 °F 50% 30.27 in 10.0 mi NW 2.3 mph - N/A   Clear